When you browse on this site, cookies collect data to enhance your experience and personalize the content and advertising you see.
Visit our Privacy Policy to learn more. By continuing to use the site, you agree to this use of cookies and data.
  • In Czech Republic
  • List of Countries
  • For 7 days
  • Water Temperature
  • Satellite Maps
  • Weather Map
  • Weather Widgets
  • user-avatar
    Login

    Hourly Weather Thompson

    Today, 16 June, Sunday

    Time Temperature Precipitation Wind Pressure Humidity
    00:00 +10°C° 0 mm 1 mps 743 mmHg 39%
    01:00 +9°C° 0 mm 1 mps 744 mmHg 40%
    02:00 +9°C° 0 mm 1 mps 744 mmHg 41%
    03:00 +10°C° 0 mm 1 mps 744 mmHg 39%
    04:00 +11°C° 0 mm 1 mps 744 mmHg 37%
    05:00 +12°C° 0 mm 1 mps 744 mmHg 35%
    06:00 +14°C° 0 mm 1 mps 744 mmHg 30%
    07:00 +18°C° 0 mm 1 mps 744 mmHg 26%
    08:00 +21°C° 0 mm 1 mps 745 mmHg 21%
    09:00 +23°C° 0 mm 1 mps 744 mmHg 19%
    10:00 +25°C° 0 mm 1 mps 744 mmHg 17%
    11:00 +27°C° 0 mm 1 mps 744 mmHg 16%
    12:00 +27°C° 0 mm 2 mps 744 mmHg 16%
    13:00 +27°C° 0 mm 2 mps 744 mmHg 16%
    14:00 +27°C° 0 mm 2 mps 744 mmHg 16%
    15:00 +26°C° 0 mm 3 mps 744 mmHg 17%
    16:00 +25°C° 0 mm 3 mps 743 mmHg 19%
    17:00 +25°C° 0 mm 4 mps 743 mmHg 20%
    18:00 +21°C° 0 mm 4 mps 743 mmHg 25%
    19:00 +19°C° 0 mm 3 mps 743 mmHg 30%
    20:00 +17°C° 0 mm 3 mps 744 mmHg 35%
    21:00 +14°C° 0 mm 3 mps 744 mmHg 40%
    22:00 +12°C° 0 mm 3 mps 744 mmHg 45%
    23:00 +12°C° 0 mm 2 mps 744 mmHg 50%

    Tomorrow, 17 June, Monday

    Time Temperature Precipitation Wind Pressure Humidity
    00:00 +9°C° 0 mm 2 mps 745 mmHg 56%
    01:00 +8°C° 0 mm 2 mps 745 mmHg 63%
    02:00 +7°C° 0 mm 2 mps 745 mmHg 69%
    03:00 +8°C° 0 mm 2 mps 745 mmHg 64%
    04:00 +8°C° 0 mm 2 mps 746 mmHg 60%
    05:00 +9°C° 0 mm 2 mps 746 mmHg 55%
    06:00 +13°C° 0 mm 2 mps 746 mmHg 47%
    07:00 +16°C° 0 mm 2 mps 746 mmHg 38%
    08:00 +19°C° 0 mm 2 mps 746 mmHg 30%
    09:00 +20°C° 0 mm 2 mps 746 mmHg 26%
    10:00 +22°C° 0 mm 3 mps 745 mmHg 23%
    11:00 +24°C° 0 mm 3 mps 745 mmHg 19%
    12:00 +25°C° 0 mm 3 mps 745 mmHg 17%
    13:00 +26°C° 0 mm 3 mps 745 mmHg 15%
    14:00 +27°C° 0 mm 2 mps 745 mmHg 13%
    15:00 +26°C° 0 mm 2 mps 744 mmHg 13%
    16:00 +26°C° 0 mm 2 mps 744 mmHg 13%
    17:00 +26°C° 0 mm 2 mps 744 mmHg 13%
    18:00 +23°C° 0 mm 2 mps 744 mmHg 17%
    19:00 +20°C° 0 mm 2 mps 744 mmHg 21%
    20:00 +17°C° 0 mm 2 mps 744 mmHg 25%
    21:00 +15°C° 0 mm 2 mps 744 mmHg 30%
    22:00 +13°C° 0 mm 1 mps 744 mmHg 35%
    23:00 +12°C° 0 mm 1 mps 744 mmHg 40%

    Day after tomorrow, 18 June, Tuesday

    Time Temperature Precipitation Wind Pressure Humidity
    00:00 +11°C° 0 mm 1 mps 744 mmHg 43%
    01:00 +10°C° 0 mm 1 mps 744 mmHg 46%
    02:00 +9°C° 0 mm 1 mps 744 mmHg 50%
    03:00 +11°C° 0 mm 1 mps 744 mmHg 47%
    04:00 +12°C° 0 mm 1 mps 744 mmHg 43%
    05:00 +13°C° 0 mm 1 mps 744 mmHg 40%
    06:00 +18°C° 0 mm 1 mps 744 mmHg 33%
    07:00 +21°C° 0 mm 1 mps 744 mmHg 26%
    08:00 +25°C° 0 mm 2 mps 744 mmHg 19%
    09:00 +27°C° 0 mm 1 mps 743 mmHg 17%
    10:00 +29°C° 0 mm 1 mps 743 mmHg 15%
    11:00 +32°C° 0 mm 1 mps 743 mmHg 12%
    12:00 +33°C° 0 mm 1 mps 742 mmHg 12%
    13:00 +33°C° 0 mm 1 mps 742 mmHg 11%
    14:00 +34°C° 0 mm 1 mps 741 mmHg 10%
    15:00 +33°C° 0 mm 1 mps 741 mmHg 10%
    16:00 +32°C° 0 mm 1 mps 741 mmHg 11%
    17:00 +31°C° 0 mm 1 mps 740 mmHg 11%
    18:00 +28°C° 0 mm 2 mps 740 mmHg 15%
    19:00 +25°C° 0 mm 2 mps 740 mmHg 18%
    20:00 +21°C° 0 mm 2 mps 740 mmHg 22%
    21:00 +20°C° 0 mm 2 mps 740 mmHg 24%
    22:00 +18°C° 0 mm 2 mps 740 mmHg 26%
    23:00 +16°C° 0 mm 2 mps 740 mmHg 28%

    19 June, Wednesday

    Time Temperature Precipitation Wind Pressure Humidity
    00:00 +15°C° 0 mm 2 mps 740 mmHg 34%
    01:00 +14°C° 0 mm 2 mps 740 mmHg 40%
    02:00 +13°C° 0 mm 1 mps 740 mmHg 46%
    03:00 +14°C° 0 mm 1 mps 740 mmHg 45%
    04:00 +16°C° 0 mm 1 mps 740 mmHg 44%
    05:00 +18°C° 0 mm 1 mps 740 mmHg 43%
    06:00 +21°C° 0 mm 1 mps 740 mmHg 36%
    07:00 +25°C° 0 mm 1 mps 740 mmHg 29%
    08:00 +28°C° 0 mm 1 mps 740 mmHg 22%
    09:00 +30°C° 0 mm 1 mps 740 mmHg 19%
    10:00 +31°C° 0 mm 2 mps 740 mmHg 16%
    11:00 +34°C° 0 mm 2 mps 740 mmHg 14%
    12:00 +34°C° 0 mm 2 mps 739 mmHg 14%
    13:00 +34°C° 0 mm 3 mps 739 mmHg 13%
    14:00 +34°C° 0 mm 3 mps 739 mmHg 13%
    15:00 +34°C° 0 mm 3 mps 739 mmHg 13%
    16:00 +33°C° 0 mm 4 mps 738 mmHg 13%
    17:00 +33°C° 0 mm 4 mps 738 mmHg 14%
    18:00 +29°C° 0 mm 4 mps 738 mmHg 17%
    19:00 +27°C° 0 mm 3 mps 738 mmHg 20%
    20:00 +24°C° 0 mm 3 mps 738 mmHg 24%
    21:00 +22°C° 0 mm 3 mps 738 mmHg 27%
    22:00 +20°C° 0 mm 2 mps 738 mmHg 31%
    23:00 +18°C° 0 mm 2 mps 738 mmHg 34%

    20 June, Thursday

    Time Temperature Precipitation Wind Pressure Humidity
    00:00 +17°C° 0 mm 2 mps 738 mmHg 37%
    01:00 +16°C° 0 mm 2 mps 738 mmHg 40%
    02:00 +15°C° 0 mm 2 mps 738 mmHg 43%
    03:00 +16°C° 0 mm 1 mps 738 mmHg 42%
    04:00 +18°C° 0 mm 1 mps 739 mmHg 40%
    05:00 +19°C° 0 mm 1 mps 739 mmHg 38%
    06:00 +21°C° 0 mm 2 mps 739 mmHg 32%
    07:00 +25°C° 0 mm 3 mps 739 mmHg 26%
    08:00 +28°C° 0 mm 3 mps 739 mmHg 19%
    09:00 +29°C° 0 mm 3 mps 738 mmHg 18%
    10:00 +31°C° 0 mm 3 mps 738 mmHg 16%
    11:00 +33°C° 0 mm 3 mps 738 mmHg 14%
    12:00 +33°C° 0 mm 3 mps 738 mmHg 14%
    13:00 +33°C° 0 mm 3 mps 737 mmHg 13%
    14:00 +34°C° 0 mm 4 mps 737 mmHg 13%
    15:00 +33°C° 0 mm 4 mps 737 mmHg 13%
    16:00 +33°C° 0 mm 4 mps 737 mmHg 14%
    17:00 +33°C° 0 mm 4 mps 737 mmHg 14%
    18:00 +29°C° 0 mm 4 mps 737 mmHg 17%
    19:00 +27°C° 0 mm 3 mps 737 mmHg 21%
    20:00 +24°C° 0 mm 2 mps 737 mmHg 24%
    21:00 +23°C° 0 mm 2 mps 737 mmHg 28%
    22:00 +20°C° 0 mm 2 mps 737 mmHg 32%
    23:00 +18°C° 0 mm 2 mps 738 mmHg 36%

    21 June, Friday

    Time Temperature Precipitation Wind Pressure Humidity
    00:00 +17°C° 0 mm 2 mps 738 mmHg 40%
    01:00 +16°C° 0 mm 1 mps 738 mmHg 44%
    02:00 +14°C° 0 mm 1 mps 738 mmHg 48%
    03:00 +16°C° 0 mm 1 mps 738 mmHg 45%
    04:00 +18°C° 0 mm 1 mps 738 mmHg 42%
    05:00 +19°C° 0 mm 1 mps 739 mmHg 39%
    06:00 +23°C° 0 mm 1 mps 739 mmHg 32%
    07:00 +26°C° 0 mm 1 mps 739 mmHg 26%
    08:00 +30°C° 0 mm 1 mps 739 mmHg 19%
    09:00 +31°C° 0 mm 1 mps 739 mmHg 18%
    10:00 +32°C° 0 mm 1 mps 738 mmHg 16%
    11:00 +34°C° 0 mm 1 mps 738 mmHg 14%
    12:00 +33°C° 0 mm 1 mps 738 mmHg 14%
    13:00 +34°C° 0 mm 2 mps 738 mmHg 14%
    14:00 +34°C° 0 mm 2 mps 737 mmHg 14%
    15:00 +34°C° 0 mm 2 mps 737 mmHg 14%
    16:00 +32°C° 0 mm 2 mps 737 mmHg 15%
    17:00 +32°C° 0 mm 2 mps 736 mmHg 15%
    18:00 +29°C° 0 mm 2 mps 736 mmHg 19%
    19:00 +27°C° 0 mm 2 mps 736 mmHg 23%
    20:00 +24°C° 0 mm 1 mps 735 mmHg 27%
    21:00 +23°C° 0 mm 1 mps 735 mmHg 30%
    22:00 +22°C° 0 mm 1 mps 735 mmHg 32%
    23:00 +21°C° 0 mm 1 mps 735 mmHg 35%
    Show more